Battle Mountain, Nevada, United States (89820)
Lat: 40.64N, Lon: 116.93W
Wx Zone: NVZ036
Local Info
Past Weather Observations for Sunday, March 22, 2015

NOTE: This archive is for the closest National Weather Service station to Battle Mountain. Information may differ from the station used for current weather conditions.

Click here for Long-term Archive

Time Weather Temperature Dewpoint Humidity Pressure Winds Precip Visibility
23:56
Overcast
Light Rain
43°F / 6°C 37°F / 3°C 81% 30.06 in
(1018 mb)
W 10.4 mph
(W 17 kph)
0.01 in
(0.25 mm)
6SM
22:56
Overcast
52°F / 11°C 27°F / -3°C 38% 30.01 in
(1016 mb)
SSW 10.4 mph
(SSW 17 kph)
- 10SM
21:56
Overcast
50°F / 10°C 30°F / -1°C 47% 30.01 in
(1016 mb)
W 3.5 mph
(W 6 kph)
0.00 in
(0.00 mm)
10SM
20:56
Overcast
Light Rain
54°F / 12°C 30°F / -1°C 41% 29.98 in
(1015 mb)
SSW 9.2 mph
(SSW 15 kph)
0.00 in
(0.00 mm)
10SM
19:56
Overcast
54°F / 12°C 27°F / -3°C 35% 29.98 in
(1015 mb)
W 11.5 mph
(W 19 kph)
- 10SM
18:56
Overcast
54°F / 12°C 21°F / -6°C 28% 29.95 in
(1014 mb)
S 11.5 mph
(S 19 kph)
- 10SM
17:56
Clear
54°F / 12°C 21°F / -6°C 28% 29.95 in
(1014 mb)
S 8.1 mph
(S 13 kph)
- 10SM
16:56
Partly Cloudy
61°F / 16°C 21°F / -6°C 22% 29.95 in
(1014 mb)
S 8.1 mph
(S 13 kph)
- 10SM
15:56
Partly Cloudy
64°F / 18°C 21°F / -6°C 19% 29.98 in
(1015 mb)
SW 16.1 mph
(SW 26 kph)
- 10SM
14:56
Mostly Cloudy
64°F / 18°C 21°F / -6°C 19% 30.01 in
(1016 mb)
SSW 6.9 mph
(SSW 11 kph)
- 10SM
13:56
Mostly Cloudy
61°F / 16°C 23°F / -5°C 23% 30.04 in
(1017 mb)
S 8.1 mph
(S 13 kph)
- 10SM
12:56
Mostly Cloudy
61°F / 16°C 25°F / -4°C 25% 30.06 in
(1018 mb)
Variable 5.8 mph
(Variable 9 kph)
- 10SM
11:56
Clear
61°F / 16°C 27°F / -3°C 27% 30.09 in
(1019 mb)
SSW 11.5 mph
(SSW 19 kph)
- 10SM
10:56
Overcast
57°F / 14°C 27°F / -3°C 31% 30.12 in
(1020 mb)
SSW 8.1 mph
(SSW 13 kph)
- 10SM
09:56
Partly Cloudy
55°F / 13°C 21°F / -6°C 26% 30.15 in
(1021 mb)
S 6.9 mph
(S 11 kph)
- 10SM
08:56
Partly Cloudy
52°F / 11°C 25°F / -4°C 35% 30.15 in
(1021 mb)
S 8.1 mph
(S 13 kph)
- 10SM
07:56
Overcast
45°F / 7°C 19°F / -7°C 37% 30.12 in
(1020 mb)
SE 4.6 mph
(SE 7 kph)
- 10SM
06:56
Mostly Cloudy
37°F / 3°C 16°F / -9°C 41% 30.15 in
(1021 mb)
E 3.5 mph
(E 6 kph)
- 10SM
05:56
Clear
30°F / -1°C 12°F / -11°C 47% 30.12 in
(1020 mb)
SSE 3.5 mph
(SSE 6 kph)
- 10SM
04:56
Clear
30°F / -1°C 12°F / -11°C 47% 30.12 in
(1020 mb)
Calm - 10SM
03:56
Clear
30°F / -1°C 10°F / -12°C 43% 30.09 in
(1019 mb)
Variable 3.5 mph
(Variable 6 kph)
- 10SM
02:56
Clear
28°F / -2°C 10°F / -12°C 47% 30.09 in
(1019 mb)
SSE 4.6 mph
(SSE 7 kph)
- 10SM
01:56
Clear
28°F / -2°C 10°F / -12°C 47% 30.12 in
(1020 mb)
SE 8.1 mph
(SE 13 kph)
- 10SM
00:56
Clear
36°F / 2°C 10°F / -12°C 35% 30.12 in
(1020 mb)
SSE 4.6 mph
(SSE 7 kph)
- 10SM
Time Weather Temperature Dewpoint Humidity Pressure Winds Precip Visibility


Weather for websites

WeatherForYou.com, LLC is not responsible for any damages or problems caused by this service. Current weather conditions are obtained from the closest station including government and personal stations which may have varying degrees of accuracy. Weather forecasts are derived from the NOAA NDFD. Like all things, this site belongs to Jesus Christ... He just trusts me to maintain it. If you have any questions or comments email webmaster@weatherforyou.com

Copyright © 2015, WeatherForYou.com LLC. All rights reserved.